Location: Auckland
(36.8670°S, 174.7670°E)
Time: 08:21:10
(UTC+12:00)

Vanguard 1 Rocket - Visible Passes

Search period start: 23 August 2019 00:00
Search period end: 02 September 2019 00:00
Orbit: 652 x 4224 km, 34.3° (Epoch: 21 August)

Date Brightness Start Highest point End Pass type
(mag) Time Alt. Az. Time Alt. Az. Time Alt. Az.
23 Aug 10.2 19:44:19 10° WSW 20:02:52 43° NW 20:11:58 15° NNE visible
24 Aug 10.3 18:27:40 10° WSW 18:50:33 60° NNW 19:03:11 10° NE visible
24 Aug 10.5 21:04:54 10° W 21:15:56 21° NW 21:22:29 12° NNW visible
25 Aug 10.5 19:47:00 10° WSW 20:04:50 37° NW 20:15:19 10° NNE visible
26 Aug 10.6 18:30:07 10° WSW 18:52:42 53° NW 19:05:39 10° NE visible
26 Aug 10.8 21:09:14 10° W 21:17:40 16° WNW 21:24:03 10° NNW visible
27 Aug 10.7 19:49:56 10° W 20:06:38 30° NW 20:17:07 10° N visible
28 Aug 10.7 18:32:39 10° WSW 18:54:40 47° NW 19:07:54 10° NNE visible
28 Aug 11.1 21:16:03 10° WNW 21:19:18 11° WNW 21:22:13 10° NW visible
29 Aug 10.9 19:53:16 10° W 20:08:17 24° NW 20:18:29 10° N visible
30 Aug 10.9 18:35:19 10° WSW 18:56:28 40° NW 19:09:54 10° NNE visible
31 Aug 11.2 19:57:17 10° W 20:09:51 19° WNW 20:19:10 10° NNW visible
01 Sep 11.0 18:38:14 10° WSW 18:58:07 33° NW 19:11:33 10° N visible
